1588456800,2020-05-03 00:00,430.00,-29
1588456860,2020-05-03 00:01,431.00,-32
1588456920,2020-05-03 00:02,429.00,-30
1588456980,2020-05-03 00:03,426.00,-30
1588457040,2020-05-03 00:04,427.00,-28
1588457100,2020-05-03 00:05,430.00,-29
1588457161,2020-05-03 00:06,431.00,-29
1588457221,2020-05-03 00:07,429.00,-30
1588457281,2020-05-03 00:08,429.00,-30
1588457341,2020-05-03 00:09,430.00,-29
1588457401,2020-05-03 00:10,431.00,-31
1588457461,2020-05-03 00:11,432.00,-31
1588457521,2020-05-03 00:12,430.00,-30
1588457581,2020-05-03 00:13,432.00,-32
1588457641,2020-05-03 00:14,430.00,-30
1588457701,2020-05-03 00:15,432.00,-29
1588457762,2020-05-03 00:16,432.00,-29
1588457822,2020-05-03 00:17,431.00,-30
1588457882,2020-05-03 00:18,431.00,-30
1588457942,2020-05-03 00:19,430.00,-32
1588458002,2020-05-03 00:20,433.00,-29
1588458062,2020-05-03 00:21,433.00,-29
1588458122,2020-05-03 00:22,432.00,-30
1588458182,2020-05-03 00:23,434.00,-29
1588458242,2020-05-03 00:24,430.00,-30
1588458302,2020-05-03 00:25,432.00,-31
1588458363,2020-05-03 00:26,432.00,-30
1588458423,2020-05-03 00:27,433.00,-30
1588458483,2020-05-03 00:28,432.00,-31
1588458543,2020-05-03 00:29,431.00,-29
1588458603,2020-05-03 00:30,429.00,-29
1588458663,2020-05-03 00:31,431.00,-29
1588458723,2020-05-03 00:32,431.00,-33
1588458783,2020-05-03 00:33,431.00,-33
1588458843,2020-05-03 00:34,432.00,-33
1588458903,2020-05-03 00:35,431.00,-29
1588458963,2020-05-03 00:36,433.00,-33
1588459023,2020-05-03 00:37,433.00,-29
1588459084,2020-05-03 00:38,432.00,-29
1588459144,2020-05-03 00:39,432.00,-29
1588459204,2020-05-03 00:40,426.00,-33
1588459264,2020-05-03 00:41,429.00,-33
1588459324,2020-05-03 00:42,432.00,-31
1588459384,2020-05-03 00:43,429.00,-30
1588459444,2020-05-03 00:44,430.00,-33
1588459504,2020-05-03 00:45,431.00,-30
1588459564,2020-05-03 00:46,431.00,-31
1588459624,2020-05-03 00:47,430.00,-29
1588459684,2020-05-03 00:48,427.00,-30
1588459744,2020-05-03 00:49,427.00,-31
1588459804,2020-05-03 00:50,431.00,-34
1588459864,2020-05-03 00:51,429.00,-33
1588459924,2020-05-03 00:52,431.00,-33
1588459985,2020-05-03 00:53,430.00,-33
1588460045,2020-05-03 00:54,431.00,-33
1588460105,2020-05-03 00:55,431.00,-30
1588460165,2020-05-03 00:56,432.00,-32
1588460225,2020-05-03 00:57,431.00,-31
1588460285,2020-05-03 00:58,429.00,-32
1588460345,2020-05-03 00:59,431.00,-30
1588460405,2020-05-03 01:00,430.00,-30
1588460465,2020-05-03 01:01,428.00,-29
1588460525,2020-05-03 01:02,428.00,-29
1588460585,2020-05-03 01:03,431.00,-33
1588460646,2020-05-03 01:04,428.00,-33
1588460706,2020-05-03 01:05,430.00,-29
1588460766,2020-05-03 01:06,429.00,-31
1588460826,2020-05-03 01:07,429.00,-31
1588460886,2020-05-03 01:08,427.00,-29
1588460946,2020-05-03 01:09,429.00,-30
1588461006,2020-05-03 01:10,429.00,-33
1588461066,2020-05-03 01:11,432.00,-29
1588461126,2020-05-03 01:12,428.00,-30
1588461186,2020-05-03 01:13,428.00,-29
1588461246,2020-05-03 01:14,428.00,-29
1588461306,2020-05-03 01:15,429.00,-27
1588461367,2020-05-03 01:16,429.00,-30
1588461427,2020-05-03 01:17,428.00,-28
1588461487,2020-05-03 01:18,429.00,-32
1588461547,2020-05-03 01:19,427.00,-27
1588461607,2020-05-03 01:20,426.00,-28
1588461667,2020-05-03 01:21,427.00,-29
1588461727,2020-05-03 01:22,428.00,-30
1588461787,2020-05-03 01:23,428.00,-29
1588461847,2020-05-03 01:24,430.00,-29
1588461907,2020-05-03 01:25,425.00,-27
1588461967,2020-05-03 01:26,430.00,-28
1588462027,2020-05-03 01:27,429.00,-29
1588462087,2020-05-03 01:28,429.00,-27
1588462147,2020-05-03 01:29,430.00,-28
1588462207,2020-05-03 01:30,430.00,-30
1588462267,2020-05-03 01:31,428.00,-28
1588462327,2020-05-03 01:32,429.00,-27
1588462387,2020-05-03 01:33,429.00,-28
1588462447,2020-05-03 01:34,429.00,-27
1588462507,2020-05-03 01:35,432.00,-29
1588462568,2020-05-03 01:36,428.00,-27
1588462628,2020-05-03 01:37,429.00,-29
1588462688,2020-05-03 01:38,429.00,-28
1588462748,2020-05-03 01:39,430.00,-27
1588462808,2020-05-03 01:40,428.00,-27
1588462868,2020-05-03 01:41,430.00,-28
1588462928,2020-05-03 01:42,429.00,-27
1588462988,2020-05-03 01:43,428.00,-29
1588463048,2020-05-03 01:44,427.00,-30
1588463108,2020-05-03 01:45,430.00,-33
1588463168,2020-05-03 01:46,431.00,-30
1588463228,2020-05-03 01:47,427.00,-30
1588463288,2020-05-03 01:48,429.00,-31
1588463348,2020-05-03 01:49,428.00,-29
1588463408,2020-05-03 01:50,428.00,-30
1588463468,2020-05-03 01:51,430.00,-32
1588463528,2020-05-03 01:52,429.00,-30
1588463588,2020-05-03 01:53,430.00,-30
1588463648,2020-05-03 01:54,428.00,-29
1588463708,2020-05-03 01:55,429.00,-30
1588463768,2020-05-03 01:56,429.00,-29
1588463829,2020-05-03 01:57,428.00,-30
1588463889,2020-05-03 01:58,428.00,-31
1588463949,2020-05-03 01:59,427.00,-29
1588464009,2020-05-03 02:00,428.00,-31
1588464069,2020-05-03 02:01,426.00,-28
1588464129,2020-05-03 02:02,429.00,-28
1588464189,2020-05-03 02:03,428.00,-27
1588464249,2020-05-03 02:04,431.00,-29
1588464309,2020-05-03 02:05,427.00,-31
1588464370,2020-05-03 02:06,430.00,-28
1588464430,2020-05-03 02:07,430.00,-29
1588464490,2020-05-03 02:08,429.00,-28
1588464550,2020-05-03 02:09,429.00,-28
1588464610,2020-05-03 02:10,429.00,-29
1588464670,2020-05-03 02:11,429.00,-28
1588464730,2020-05-03 02:12,428.00,-30
1588464790,2020-05-03 02:13,430.00,-28
1588464850,2020-05-03 02:14,429.00,-29
1588464910,2020-05-03 02:15,431.00,-29
1588464970,2020-05-03 02:16,429.00,-28
1588465030,2020-05-03 02:17,428.00,-28
1588465090,2020-05-03 02:18,428.00,-28
1588465150,2020-05-03 02:19,430.00,-29
1588465210,2020-05-03 02:20,430.00,-28
1588465271,2020-05-03 02:21,427.00,-27
1588465331,2020-05-03 02:22,428.00,-28
1588465391,2020-05-03 02:23,426.00,-29
1588465451,2020-05-03 02:24,428.00,-30
1588465511,2020-05-03 02:25,427.00,-28
1588465571,2020-05-03 02:26,431.00,-29
1588465631,2020-05-03 02:27,430.00,-28
1588465691,2020-05-03 02:28,429.00,-27
1588465751,2020-05-03 02:29,429.00,-27
1588465811,2020-05-03 02:30,429.00,-27
1588465871,2020-05-03 02:31,430.00,-28
1588465931,2020-05-03 02:32,428.00,-27
1588465992,2020-05-03 02:33,430.00,-28
1588466052,2020-05-03 02:34,429.00,-28
1588466112,2020-05-03 02:35,429.00,-27
1588466172,2020-05-03 02:36,431.00,-27
1588466232,2020-05-03 02:37,429.00,-27
1588466292,2020-05-03 02:38,429.00,-27
1588466352,2020-05-03 02:39,429.00,-29
1588466412,2020-05-03 02:40,430.00,-28
1588466472,2020-05-03 02:41,428.00,-27
1588466532,2020-05-03 02:42,430.00,-29
1588466592,2020-05-03 02:43,429.00,-27
1588466652,2020-05-03 02:44,427.00,-29
1588466712,2020-05-03 02:45,430.00,-28
1588466773,2020-05-03 02:46,428.00,-27
1588466833,2020-05-03 02:47,430.00,-28
1588466893,2020-05-03 02:48,428.00,-28
1588466953,2020-05-03 02:49,428.00,-27
1588467013,2020-05-03 02:50,429.00,-28
1588467073,2020-05-03 02:51,429.00,-28
1588467133,2020-05-03 02:52,428.00,-28
1588467193,2020-05-03 02:53,427.00,-29
1588467253,2020-05-03 02:54,427.00,-29
1588467313,2020-05-03 02:55,429.00,-28
1588467373,2020-05-03 02:56,428.00,-27
1588467433,2020-05-03 02:57,428.00,-28
1588467493,2020-05-03 02:58,426.00,-28
1588467553,2020-05-03 02:59,429.00,-28
1588467614,2020-05-03 03:00,427.00,-29
1588467674,2020-05-03 03:01,430.00,-29
1588467734,2020-05-03 03:02,429.00,-28
1588467794,2020-05-03 03:03,431.00,-28
1588467854,2020-05-03 03:04,429.00,-28
1588467914,2020-05-03 03:05,427.00,-27
1588467974,2020-05-03 03:06,429.00,-28
1588468034,2020-05-03 03:07,430.00,-30
1588468094,2020-05-03 03:08,428.00,-27
1588468154,2020-05-03 03:09,428.00,-28
1588468214,2020-05-03 03:10,428.00,-28
1588468274,2020-05-03 03:11,426.00,-28
1588468334,2020-05-03 03:12,426.00,-28
1588468394,2020-05-03 03:13,428.00,-28
1588468454,2020-05-03 03:14,431.00,-30
1588468514,2020-05-03 03:15,428.00,-29
1588468575,2020-05-03 03:16,429.00,-29
1588468635,2020-05-03 03:17,426.00,-28
1588468695,2020-05-03 03:18,425.00,-28
1588468755,2020-05-03 03:19,425.00,-28
1588468815,2020-05-03 03:20,425.00,-28
1588468875,2020-05-03 03:21,425.00,-28
1588468935,2020-05-03 03:22,425.00,-27
1588468995,2020-05-03 03:23,425.00,-28
1588469055,2020-05-03 03:24,426.00,-29
1588469115,2020-05-03 03:25,426.00,-28
1588469175,2020-05-03 03:26,428.00,-28
1588469235,2020-05-03 03:27,428.00,-27
1588469295,2020-05-03 03:28,427.00,-28
1588469355,2020-05-03 03:29,427.00,-29
1588469415,2020-05-03 03:30,427.00,-28
1588469475,2020-05-03 03:31,427.00,-28
1588469535,2020-05-03 03:32,430.00,-28
1588469595,2020-05-03 03:33,430.00,-29
1588469655,2020-05-03 03:34,427.00,-28
1588469716,2020-05-03 03:35,427.00,-27
1588469776,2020-05-03 03:36,427.00,-28
1588469836,2020-05-03 03:37,431.00,-29
1588469896,2020-05-03 03:38,428.00,-28
1588469956,2020-05-03 03:39,428.00,-28
1588470016,2020-05-03 03:40,427.00,-27
1588470076,2020-05-03 03:41,427.00,-28
1588470136,2020-05-03 03:42,427.00,-28
1588470196,2020-05-03 03:43,428.00,-28
1588470257,2020-05-03 03:44,432.00,-27
1588470317,2020-05-03 03:45,429.00,-28
1588470377,2020-05-03 03:46,428.00,-27
1588470437,2020-05-03 03:47,427.00,-30
1588470497,2020-05-03 03:48,430.00,-29
1588470557,2020-05-03 03:49,426.00,-28
1588470617,2020-05-03 03:50,427.00,-28
1588470678,2020-05-03 03:51,428.00,-28
1588470738,2020-05-03 03:52,426.00,-28
1588470798,2020-05-03 03:53,426.00,-27
1588470858,2020-05-03 03:54,431.00,-28
1588470918,2020-05-03 03:55,430.00,-30
1588470978,2020-05-03 03:56,432.00,-28
1588471038,2020-05-03 03:57,429.00,-29
1588471098,2020-05-03 03:58,429.00,-28
1588471158,2020-05-03 03:59,428.00,-29
1588471218,2020-05-03 04:00,428.00,-31
1588471278,2020-05-03 04:01,430.00,-28
1588471338,2020-05-03 04:02,428.00,-27
1588471398,2020-05-03 04:03,432.00,-28
1588471458,2020-05-03 04:04,433.00,-27
1588471519,2020-05-03 04:05,430.00,-27
1588471579,2020-05-03 04:06,429.00,-29
1588471639,2020-05-03 04:07,429.00,-27
1588471699,2020-05-03 04:08,427.00,-27
1588471759,2020-05-03 04:09,424.00,-31
1588471819,2020-05-03 04:10,426.00,-27
1588471879,2020-05-03 04:11,429.00,-27
1588471939,2020-05-03 04:12,427.00,-27
1588471999,2020-05-03 04:13,427.00,-32
1588472059,2020-05-03 04:14,427.00,-30
1588472120,2020-05-03 04:15,424.00,-30
1588472180,2020-05-03 04:16,428.00,-32
1588472240,2020-05-03 04:17,428.00,-29
1588472300,2020-05-03 04:18,428.00,-30
1588472360,2020-05-03 04:19,429.00,-30
1588472420,2020-05-03 04:20,426.00,-30
1588472480,2020-05-03 04:21,428.00,-31
1588472540,2020-05-03 04:22,429.00,-31
1588472600,2020-05-03 04:23,427.00,-30
1588472660,2020-05-03 04:24,426.00,-30
1588472720,2020-05-03 04:25,428.00,-30
1588472780,2020-05-03 04:26,427.00,-30
1588472840,2020-05-03 04:27,428.00,-32
1588472900,2020-05-03 04:28,429.00,-32
1588472960,2020-05-03 04:29,426.00,-28
1588473020,2020-05-03 04:30,426.00,-28
1588473080,2020-05-03 04:31,427.00,-29
1588473140,2020-05-03 04:32,426.00,-27
1588473200,2020-05-03 04:33,429.00,-28
1588473260,2020-05-03 04:34,425.00,-27
1588473320,2020-05-03 04:35,425.00,-28
1588473380,2020-05-03 04:36,426.00,-27
1588473440,2020-05-03 04:37,426.00,-27
1588473501,2020-05-03 04:38,426.00,-27
1588473561,2020-05-03 04:39,428.00,-27
1588473621,2020-05-03 04:40,427.00,-28
1588473681,2020-05-03 04:41,427.00,-29
1588473741,2020-05-03 04:42,428.00,-31
1588473801,2020-05-03 04:43,427.00,-30
1588473861,2020-05-03 04:44,429.00,-29
1588473921,2020-05-03 04:45,430.00,-28
1588473981,2020-05-03 04:46,433.00,-28
1588474041,2020-05-03 04:47,429.00,-28
1588474101,2020-05-03 04:48,429.00,-30
1588474161,2020-05-03 04:49,430.00,-28
1588474221,2020-05-03 04:50,429.00,-28
1588474281,2020-05-03 04:51,430.00,-28
1588474341,2020-05-03 04:52,429.00,-30
1588474401,2020-05-03 04:53,429.00,-28
1588474461,2020-05-03 04:54,425.00,-31
1588474521,2020-05-03 04:55,427.00,-34
1588474581,2020-05-03 04:56,426.00,-37
1588474641,2020-05-03 04:57,426.00,-34
1588474701,2020-05-03 04:58,429.00,-31
1588474761,2020-05-03 04:59,428.00,-31
1588474821,2020-05-03 05:00,425.00,-30
1588474881,2020-05-03 05:01,427.00,-27
1588474942,2020-05-03 05:02,427.00,-28
1588475002,2020-05-03 05:03,428.00,-28
1588475062,2020-05-03 05:04,431.00,-27
1588475122,2020-05-03 05:05,428.00,-27
1588475182,2020-05-03 05:06,427.00,-32
1588475242,2020-05-03 05:07,428.00,-30
1588475302,2020-05-03 05:08,428.00,-28
1588475362,2020-05-03 05:09,429.00,-28
1588475422,2020-05-03 05:10,427.00,-28
1588475482,2020-05-03 05:11,425.00,-27
1588475542,2020-05-03 05:12,428.00,-27
1588475602,2020-05-03 05:13,428.00,-29
1588475662,2020-05-03 05:14,427.00,-30
1588475722,2020-05-03 05:15,426.00,-29
1588475782,2020-05-03 05:16,427.00,-30
1588475842,2020-05-03 05:17,425.00,-30
1588475902,2020-05-03 05:18,425.00,-31
1588475962,2020-05-03 05:19,426.00,-28
1588476022,2020-05-03 05:20,426.00,-29
1588476082,2020-05-03 05:21,426.00,-29
1588476142,2020-05-03 05:22,427.00,-29
1588476203,2020-05-03 05:23,427.00,-28
1588476263,2020-05-03 05:24,428.00,-28
1588476323,2020-05-03 05:25,429.00,-28
1588476383,2020-05-03 05:26,427.00,-30
1588476443,2020-05-03 05:27,425.00,-27
1588476503,2020-05-03 05:28,425.00,-30
1588476563,2020-05-03 05:29,424.00,-29
1588476623,2020-05-03 05:30,424.00,-30
1588476683,2020-05-03 05:31,427.00,-28
1588476743,2020-05-03 05:32,428.00,-30
1588476803,2020-05-03 05:33,426.00,-27
1588476863,2020-05-03 05:34,424.00,-27
1588476923,2020-05-03 05:35,426.00,-28
1588476983,2020-05-03 05:36,425.00,-29
1588477043,2020-05-03 05:37,426.00,-29
1588477103,2020-05-03 05:38,425.00,-27
1588477163,2020-05-03 05:39,425.00,-28
1588477223,2020-05-03 05:40,426.00,-27
1588477284,2020-05-03 05:41,426.00,-29
1588477344,2020-05-03 05:42,427.00,-28
1588477404,2020-05-03 05:43,428.00,-29
1588477464,2020-05-03 05:44,426.00,-28
1588477524,2020-05-03 05:45,426.00,-29
1588477584,2020-05-03 05:46,425.00,-28
1588477644,2020-05-03 05:47,426.00,-28
1588477704,2020-05-03 05:48,424.00,-28
1588477764,2020-05-03 05:49,429.00,-28
1588477825,2020-05-03 05:50,428.00,-27
1588477885,2020-05-03 05:51,428.00,-30
1588477945,2020-05-03 05:52,428.00,-30
1588478005,2020-05-03 05:53,426.00,-28
1588478065,2020-05-03 05:54,425.00,-28
1588478125,2020-05-03 05:55,425.00,-27
1588478185,2020-05-03 05:56,425.00,-27
1588478245,2020-05-03 05:57,428.00,-27
1588478305,2020-05-03 05:58,426.00,-29
1588478365,2020-05-03 05:59,425.00,-29
1588478426,2020-05-03 06:00,426.00,-30
1588478486,2020-05-03 06:01,429.00,-31
1588478546,2020-05-03 06:02,425.00,-30
1588478606,2020-05-03 06:03,428.00,-28
1588478666,2020-05-03 06:04,425.00,-28
1588478726,2020-05-03 06:05,426.00,-30
1588478786,2020-05-03 06:06,429.00,-27
1588478846,2020-05-03 06:07,424.00,-29
1588478906,2020-05-03 06:08,427.00,-29
1588478966,2020-05-03 06:09,429.00,-31
1588479026,2020-05-03 06:10,429.00,-28
1588479087,2020-05-03 06:11,429.00,-28
1588479147,2020-05-03 06:12,426.00,-29
1588479207,2020-05-03 06:13,428.00,-30
1588479267,2020-05-03 06:14,429.00,-28
1588479327,2020-05-03 06:15,427.00,-28
1588479387,2020-05-03 06:16,430.00,-28
1588479447,2020-05-03 06:17,426.00,-30
1588479507,2020-05-03 06:18,427.00,-28
1588479567,2020-05-03 06:19,427.00,-29
1588479627,2020-05-03 06:20,431.00,-27
1588479687,2020-05-03 06:21,429.00,-28
1588479747,2020-05-03 06:22,431.00,-28
1588479807,2020-05-03 06:23,426.00,-28
1588479867,2020-05-03 06:24,429.00,-28
1588479927,2020-05-03 06:25,430.00,-28
1588479987,2020-05-03 06:26,427.00,-30
1588480047,2020-05-03 06:27,428.00,-29
1588480107,2020-05-03 06:28,428.00,-29
1588480167,2020-05-03 06:29,429.00,-28
1588480227,2020-05-03 06:30,428.00,-28
1588480287,2020-05-03 06:31,431.00,-28
1588480348,2020-05-03 06:32,431.00,-29
1588480408,2020-05-03 06:33,431.00,-29
1588480468,2020-05-03 06:34,430.00,-29
1588480528,2020-05-03 06:35,431.00,-30
1588480588,2020-05-03 06:36,431.00,-28
1588480648,2020-05-03 06:37,430.00,-28
1588480708,2020-05-03 06:38,428.00,-29
1588480768,2020-05-03 06:39,428.00,-29
1588480828,2020-05-03 06:40,429.00,-27
1588480888,2020-05-03 06:41,429.00,-28
1588480948,2020-05-03 06:42,433.00,-28
1588481008,2020-05-03 06:43,429.00,-28
1588481069,2020-05-03 06:44,430.00,-28
1588481129,2020-05-03 06:45,432.00,-28
1588481189,2020-05-03 06:46,434.00,-28
1588481249,2020-05-03 06:47,427.00,-29
1588481309,2020-05-03 06:48,431.00,-28
1588481369,2020-05-03 06:49,433.00,-30
1588481429,2020-05-03 06:50,433.00,-31
1588481489,2020-05-03 06:51,433.00,-29
1588481549,2020-05-03 06:52,430.00,-27
1588481609,2020-05-03 06:53,429.00,-29
1588481669,2020-05-03 06:54,431.00,-29
1588481730,2020-05-03 06:55,432.00,-28
1588481790,2020-05-03 06:56,432.00,-29
1588481850,2020-05-03 06:57,429.00,-28
1588481910,2020-05-03 06:58,436.00,-29
1588481970,2020-05-03 06:59,431.00,-28
1588482030,2020-05-03 07:00,433.00,-30
1588482090,2020-05-03 07:01,434.00,-28
1588482150,2020-05-03 07:02,437.00,-28
1588482210,2020-05-03 07:03,433.00,-27
1588482270,2020-05-03 07:04,429.00,-28
1588482330,2020-05-03 07:05,429.00,-28
1588482390,2020-05-03 07:06,432.00,-28
1588482450,2020-05-03 07:07,431.00,-28
1588482510,2020-05-03 07:08,428.00,-32
1588482571,2020-05-03 07:09,428.00,-28
1588482631,2020-05-03 07:10,428.00,-29
1588482691,2020-05-03 07:11,426.00,-30
1588482751,2020-05-03 07:12,426.00,-28
1588482811,2020-05-03 07:13,428.00,-28
1588482871,2020-05-03 07:14,427.00,-28
1588482931,2020-05-03 07:15,429.00,-28
1588482991,2020-05-03 07:16,429.00,-28
1588483051,2020-05-03 07:17,430.00,-29
1588483111,2020-05-03 07:18,429.00,-28
1588483171,2020-05-03 07:19,431.00,-29
1588483231,2020-05-03 07:20,431.00,-28
1588483291,2020-05-03 07:21,429.00,-31
1588483352,2020-05-03 07:22,429.00,-27
1588483412,2020-05-03 07:23,429.00,-28
1588483472,2020-05-03 07:24,430.00,-29
1588483532,2020-05-03 07:25,428.00,-29
1588483592,2020-05-03 07:26,427.00,-28
1588483652,2020-05-03 07:27,434.00,-28
1588483712,2020-05-03 07:28,435.00,-29
1588483772,2020-05-03 07:29,431.00,-29
1588483833,2020-05-03 07:30,432.00,-28
1588483893,2020-05-03 07:31,434.00,-28
1588483953,2020-05-03 07:32,430.00,-28
1588484013,2020-05-03 07:33,434.00,-29
1588484073,2020-05-03 07:34,432.00,-28
1588484133,2020-05-03 07:35,434.00,-29
1588484193,2020-05-03 07:36,433.00,-28
1588484253,2020-05-03 07:37,430.00,-28
1588484314,2020-05-03 07:38,433.00,-29
1588484374,2020-05-03 07:39,433.00,-30
1588484434,2020-05-03 07:40,437.00,-28
1588484494,2020-05-03 07:41,434.00,-29
1588484554,2020-05-03 07:42,436.00,-28
1588484614,2020-05-03 07:43,435.00,-28
1588484674,2020-05-03 07:44,435.00,-31
1588484734,2020-05-03 07:45,433.00,-28
1588484794,2020-05-03 07:46,436.00,-28
1588484854,2020-05-03 07:47,434.00,-28
1588484915,2020-05-03 07:48,436.00,-30
1588484975,2020-05-03 07:49,435.00,-29
1588485035,2020-05-03 07:50,433.00,-28
1588485095,2020-05-03 07:51,435.00,-28
1588485155,2020-05-03 07:52,435.00,-28
1588485215,2020-05-03 07:53,434.00,-30
1588485275,2020-05-03 07:54,434.00,-28
1588485335,2020-05-03 07:55,435.00,-28
1588485396,2020-05-03 07:56,435.00,-28
1588485456,2020-05-03 07:57,433.00,-31
1588485516,2020-05-03 07:58,431.00,-28
1588485576,2020-05-03 07:59,435.00,-28
1588485636,2020-05-03 08:00,434.00,-28
1588485696,2020-05-03 08:01,434.00,-28
1588485756,2020-05-03 08:02,434.00,-29
1588485816,2020-05-03 08:03,433.00,-28
1588485876,2020-05-03 08:04,434.00,-29
1588485937,2020-05-03 08:05,433.00,-28
1588485997,2020-05-03 08:06,433.00,-30
1588486057,2020-05-03 08:07,432.00,-30
1588486117,2020-05-03 08:08,433.00,-30
1588486177,2020-05-03 08:09,434.00,-30
1588486237,2020-05-03 08:10,438.00,-28
1588486298,2020-05-03 08:11,432.00,-28
1588486358,2020-05-03 08:12,434.00,-29
1588486418,2020-05-03 08:13,434.00,-29
1588486478,2020-05-03 08:14,436.00,-28
1588486538,2020-05-03 08:15,437.00,-29
1588486598,2020-05-03 08:16,437.00,-31
1588486658,2020-05-03 08:17,434.00,-28
1588486718,2020-05-03 08:18,434.00,-28
1588486778,2020-05-03 08:19,435.00,-30
1588486838,2020-05-03 08:20,434.00,-28
1588486898,2020-05-03 08:21,435.00,-28
1588486958,2020-05-03 08:22,437.00,-28
1588487018,2020-05-03 08:23,432.00,-30
1588487078,2020-05-03 08:24,432.00,-28
1588487139,2020-05-03 08:25,434.00,-30
1588487199,2020-05-03 08:26,433.00,-28
1588487259,2020-05-03 08:27,431.00,-31
1588487319,2020-05-03 08:28,431.00,-29
1588487379,2020-05-03 08:29,432.00,-29
1588487439,2020-05-03 08:30,435.00,-28
1588487499,2020-05-03 08:31,432.00,-31
1588487560,2020-05-03 08:32,434.00,-30
1588487620,2020-05-03 08:33,436.00,-28
1588487680,2020-05-03 08:34,435.00,-28
1588487740,2020-05-03 08:35,432.00,-30
1588487800,2020-05-03 08:36,433.00,-29
1588487860,2020-05-03 08:37,434.00,-29
1588487920,2020-05-03 08:38,433.00,-27
1588487980,2020-05-03 08:39,431.00,-29
1588488041,2020-05-03 08:40,432.00,-28
1588488101,2020-05-03 08:41,432.00,-30
1588488161,2020-05-03 08:42,433.00,-29
1588488221,2020-05-03 08:43,432.00,-28
1588488281,2020-05-03 08:44,434.00,-28
1588488341,2020-05-03 08:45,432.00,-30
1588488401,2020-05-03 08:46,432.00,-28
1588488461,2020-05-03 08:47,433.00,-29
1588488522,2020-05-03 08:48,432.00,-29
1588488582,2020-05-03 08:49,431.00,-29
1588488642,2020-05-03 08:50,430.00,-29
1588488702,2020-05-03 08:51,431.00,-29
1588488762,2020-05-03 08:52,433.00,-29
1588488822,2020-05-03 08:53,432.00,-28
1588488882,2020-05-03 08:54,430.00,-29
1588488942,2020-05-03 08:55,430.00,-30
1588489002,2020-05-03 08:56,431.00,-28
1588489062,2020-05-03 08:57,432.00,-29
1588489122,2020-05-03 08:58,431.00,-30
1588489182,2020-05-03 08:59,430.00,-29
1588489243,2020-05-03 09:00,431.00,-30
1588489303,2020-05-03 09:01,432.00,-27
1588489363,2020-05-03 09:02,431.00,-29
1588489423,2020-05-03 09:03,429.00,-27
1588489483,2020-05-03 09:04,429.00,-28
1588489543,2020-05-03 09:05,426.00,-31
1588489603,2020-05-03 09:06,424.00,-30
1588489663,2020-05-03 09:07,429.00,-28
1588489723,2020-05-03 09:08,428.00,-29
1588489784,2020-05-03 09:09,427.00,-29
1588489844,2020-05-03 09:10,431.00,-31
1588489904,2020-05-03 09:11,431.00,-28
1588489964,2020-05-03 09:12,432.00,-28
1588490024,2020-05-03 09:13,430.00,-29
1588490084,2020-05-03 09:14,431.00,-29
1588490144,2020-05-03 09:15,428.00,-30
1588490204,2020-05-03 09:16,430.00,-29
1588490264,2020-05-03 09:17,431.00,-28
1588490324,2020-05-03 09:18,428.00,-28
1588490384,2020-05-03 09:19,430.00,-30
1588490444,2020-05-03 09:20,431.00,-30
1588490504,2020-05-03 09:21,429.00,-30
1588490565,2020-05-03 09:22,427.00,-29
1588490625,2020-05-03 09:23,430.00,-29
1588490685,2020-05-03 09:24,432.00,-28
1588490745,2020-05-03 09:25,434.00,-32
1588490805,2020-05-03 09:26,430.00,-28
1588490865,2020-05-03 09:27,431.00,-33
1588490925,2020-05-03 09:28,430.00,-28
1588490985,2020-05-03 09:29,430.00,-27
1588491045,2020-05-03 09:30,431.00,-31
1588491105,2020-05-03 09:31,431.00,-28
1588491165,2020-05-03 09:32,434.00,-28
1588491225,2020-05-03 09:33,431.00,-30
1588491285,2020-05-03 09:34,431.00,-28
1588491345,2020-05-03 09:35,434.00,-28
1588491406,2020-05-03 09:36,435.00,-30
1588491466,2020-05-03 09:37,436.00,-28
1588491526,2020-05-03 09:38,437.00,-28
1588491586,2020-05-03 09:39,431.00,-28
1588491646,2020-05-03 09:40,431.00,-28
1588491706,2020-05-03 09:41,432.00,-29
1588491766,2020-05-03 09:42,432.00,-28
1588491826,2020-05-03 09:43,435.00,-28
1588491886,2020-05-03 09:44,437.00,-28
1588491946,2020-05-03 09:45,435.00,-27
1588492006,2020-05-03 09:46,432.00,-28
1588492066,2020-05-03 09:47,432.00,-28
1588492126,2020-05-03 09:48,430.00,-30
1588492186,2020-05-03 09:49,432.00,-27
1588492247,2020-05-03 09:50,431.00,-28
1588492307,2020-05-03 09:51,432.00,-28
1588492367,2020-05-03 09:52,430.00,-29
1588492427,2020-05-03 09:53,430.00,-29
1588492487,2020-05-03 09:54,432.00,-27
1588492547,2020-05-03 09:55,432.00,-28
1588492607,2020-05-03 09:56,435.00,-27
1588492667,2020-05-03 09:57,433.00,-29
1588492727,2020-05-03 09:58,435.00,-27
1588492787,2020-05-03 09:59,434.00,-29
1588492847,2020-05-03 10:00,432.00,-29
1588492907,2020-05-03 10:01,432.00,-30
1588492967,2020-05-03 10:02,431.00,-28
1588493027,2020-05-03 10:03,432.00,-28
1588493087,2020-05-03 10:04,432.00,-30
1588493147,2020-05-03 10:05,430.00,-28
1588493208,2020-05-03 10:06,431.00,-30
1588493268,2020-05-03 10:07,430.00,-28
1588493328,2020-05-03 10:08,432.00,-28
1588493388,2020-05-03 10:09,433.00,-29
1588493448,2020-05-03 10:10,432.00,-27
1588493508,2020-05-03 10:11,435.00,-28
1588493568,2020-05-03 10:12,434.00,-27
1588493628,2020-05-03 10:13,433.00,-29
1588493688,2020-05-03 10:14,432.00,-28